• Em Portugal
  • Lista de países
  • Para 7 dias
  • Temperatura da água
  • Mapas de satélite
  • Mapa do tempo
  • Widgets de tempo
  • user-avatar
    Iniciar Sessão

    Previsão horária em Mostar

    Hoje, 17 Julho, Terça-feira

    Tempo Temperatura Precipitação Vento Pressão Humidade
    00:00 +24°C° 0,6 mm 3 m/s 751 mmHg 81%
    01:00 +24°C° 0,6 mm 3 m/s 752 mmHg 81%
    02:00 +22°C° 1,8 mm 3 m/s 751 mmHg 85%
    03:00 +22°C° 1,8 mm 3 m/s 751 mmHg 88%
    04:00 +22°C° 1,8 mm 3 m/s 751 mmHg 92%
    05:00 +22°C° 0,9 mm 3 m/s 751 mmHg 92%
    06:00 +23°C° 0,9 mm 2 m/s 750 mmHg 92%
    07:00 +23°C° 0,9 mm 2 m/s 750 mmHg 91%
    08:00 +24°C° 0,2 mm 2 m/s 750 mmHg 85%
    09:00 +25°C° 0,2 mm 1 m/s 750 mmHg 78%
    10:00 +26°C° 0,2 mm 1 m/s 750 mmHg 71%
    11:00 +27°C° 0,5 mm 2 m/s 750 mmHg 70%
    12:00 +28°C° 0,5 mm 3 m/s 750 mmHg 69%
    13:00 +28°C° 0,5 mm 4 m/s 750 mmHg 68%
    14:00 +28°C° 0,4 mm 4 m/s 750 mmHg 68%
    15:00 +29°C° 0,4 mm 4 m/s 750 mmHg 67%
    16:00 +29°C° 0,4 mm 4 m/s 750 mmHg 67%
    17:00 +28°C° 0 mm 4 m/s 750 mmHg 70%
    18:00 +27°C° 0 mm 4 m/s 751 mmHg 74%
    19:00 +26°C° 0 mm 4 m/s 751 mmHg 77%
    20:00 +25°C° 0 mm 4 m/s 751 mmHg 79%
    21:00 +23°C° 0 mm 4 m/s 751 mmHg 80%
    22:00 +22°C° 0 mm 3 m/s 752 mmHg 81%
    23:00 +21°C° 0 mm 3 m/s 752 mmHg 81%

    Amanhã, 18 Julho, Quarta-feira

    Tempo Temperatura Precipitação Vento Pressão Humidade
    00:00 +21°C° 0 mm 3 m/s 752 mmHg 81%
    01:00 +20°C° 0 mm 3 m/s 752 mmHg 80%
    02:00 +20°C° 0 mm 3 m/s 752 mmHg 80%
    03:00 +20°C° 0 mm 3 m/s 752 mmHg 80%
    04:00 +20°C° 0 mm 3 m/s 752 mmHg 79%
    05:00 +21°C° 0 mm 3 m/s 752 mmHg 76%
    06:00 +24°C° 0 mm 3 m/s 753 mmHg 72%
    07:00 +25°C° 0 mm 3 m/s 753 mmHg 69%
    08:00 +27°C° 0 mm 3 m/s 753 mmHg 62%
    09:00 +28°C° 0 mm 3 m/s 753 mmHg 56%
    10:00 +30°C° 0 mm 3 m/s 753 mmHg 49%
    11:00 +30°C° 0 mm 4 m/s 753 mmHg 47%
    12:00 +32°C° 0 mm 4 m/s 753 mmHg 46%
    13:00 +33°C° 0 mm 5 m/s 753 mmHg 44%
    14:00 +32°C° 0 mm 5 m/s 752 mmHg 46%
    15:00 +32°C° 0 mm 5 m/s 752 mmHg 47%
    16:00 +32°C° 0 mm 6 m/s 752 mmHg 48%
    17:00 +30°C° 0 mm 5 m/s 752 mmHg 55%
    18:00 +28°C° 0 mm 5 m/s 752 mmHg 61%
    19:00 +26°C° 0 mm 4 m/s 752 mmHg 68%
    20:00 +25°C° 0 mm 4 m/s 753 mmHg 68%
    21:00 +24°C° 0 mm 3 m/s 753 mmHg 68%
    22:00 +22°C° 0 mm 3 m/s 753 mmHg 68%
    23:00 +22°C° 0 mm 3 m/s 753 mmHg 68%

    Depois de amanhã, 19 Julho, Quinta-feira

    Tempo Temperatura Precipitação Vento Pressão Humidade
    00:00 +22°C° 0 mm 3 m/s 753 mmHg 68%
    01:00 +21°C° 0 mm 3 m/s 753 mmHg 68%
    02:00 +21°C° 0 mm 3 m/s 753 mmHg 69%
    03:00 +21°C° 0 mm 3 m/s 753 mmHg 70%
    04:00 +21°C° 0 mm 3 m/s 753 mmHg 71%
    05:00 +22°C° 0 mm 3 m/s 753 mmHg 70%
    06:00 +24°C° 0 mm 3 m/s 753 mmHg 68%
    07:00 +26°C° 0 mm 3 m/s 753 mmHg 66%
    08:00 +27°C° 0 mm 3 m/s 753 mmHg 61%
    09:00 +29°C° 0 mm 3 m/s 753 mmHg 57%
    10:00 +30°C° 0 mm 3 m/s 753 mmHg 52%
    11:00 +32°C° 0 mm 4 m/s 753 mmHg 50%
    12:00 +33°C° 0 mm 4 m/s 753 mmHg 48%
    13:00 +33°C° 0 mm 4 m/s 753 mmHg 45%
    14:00 +33°C° 0 mm 4 m/s 753 mmHg 47%
    15:00 +33°C° 0 mm 5 m/s 753 mmHg 48%
    16:00 +33°C° 0 mm 5 m/s 753 mmHg 49%
    17:00 +30°C° 0 mm 4 m/s 753 mmHg 55%
    18:00 +29°C° 0 mm 4 m/s 753 mmHg 62%
    19:00 +27°C° 0 mm 4 m/s 753 mmHg 69%
    20:00 +26°C° 0 mm 3 m/s 753 mmHg 70%
    21:00 +25°C° 0 mm 3 m/s 753 mmHg 72%
    22:00 +24°C° 0 mm 3 m/s 754 mmHg 73%
    23:00 +22°C° 0 mm 3 m/s 754 mmHg 75%

    20 Julho, Sexta-feira

    Tempo Temperatura Precipitação Vento Pressão Humidade
    00:00 +22°C° 0 mm 3 m/s 754 mmHg 76%
    01:00 +21°C° 0 mm 3 m/s 754 mmHg 77%
    02:00 +21°C° 0 mm 3 m/s 753 mmHg 78%
    03:00 +21°C° 0 mm 3 m/s 753 mmHg 78%
    04:00 +21°C° 0 mm 3 m/s 753 mmHg 79%
    05:00 +22°C° 0 mm 3 m/s 753 mmHg 75%
    06:00 +25°C° 0 mm 2 m/s 753 mmHg 72%
    07:00 +26°C° 0 mm 2 m/s 754 mmHg 68%
    08:00 +28°C° 0 mm 2 m/s 754 mmHg 61%
    09:00 +30°C° 0 mm 2 m/s 754 mmHg 55%
    10:00 +31°C° 0 mm 1 m/s 754 mmHg 49%
    11:00 +32°C° 0 mm 2 m/s 754 mmHg 47%
    12:00 +34°C° 0 mm 2 m/s 754 mmHg 45%
    13:00 +34°C° 0 mm 2 m/s 753 mmHg 43%
    14:00 +34°C° 0 mm 3 m/s 753 mmHg 45%
    15:00 +34°C° 0 mm 3 m/s 753 mmHg 48%
    16:00 +34°C° 0 mm 3 m/s 753 mmHg 51%
    17:00 +31°C° 0 mm 3 m/s 753 mmHg 57%
    18:00 +29°C° 0 mm 2 m/s 753 mmHg 64%
    19:00 +28°C° 0 mm 2 m/s 752 mmHg 70%
    20:00 +27°C° 0 mm 1 m/s 753 mmHg 72%
    21:00 +26°C° 0 mm 1 m/s 753 mmHg 73%
    22:00 +25°C° 0 mm 1 m/s 753 mmHg 74%
    23:00 +25°C° 0 mm 1 m/s 753 mmHg 74%

    21 Julho, Sábado

    Tempo Temperatura Precipitação Vento Pressão Humidade
    00:00 +24°C° 0 mm 1 m/s 753 mmHg 74%
    01:00 +24°C° 0 mm 1 m/s 753 mmHg 74%
    02:00 +24°C° 0 mm 1 m/s 752 mmHg 74%
    03:00 +24°C° 0 mm 1 m/s 752 mmHg 73%
    04:00 +23°C° 0 mm 2 m/s 752 mmHg 72%
    05:00 +25°C° 0 mm 2 m/s 752 mmHg 69%
    06:00 +26°C° 0 mm 2 m/s 752 mmHg 65%
    07:00 +28°C° 0 mm 2 m/s 752 mmHg 62%
    08:00 +29°C° 0 mm 2 m/s 752 mmHg 58%
    09:00 +31°C° 0 mm 3 m/s 752 mmHg 54%
    10:00 +33°C° 0 mm 3 m/s 752 mmHg 50%
    11:00 +34°C° 0 mm 4 m/s 751 mmHg 49%
    12:00 +34°C° 0 mm 4 m/s 751 mmHg 48%
    13:00 +35°C° 0 mm 4 m/s 751 mmHg 48%
    14:00 +34°C° 0 mm 4 m/s 751 mmHg 49%
    15:00 +34°C° 0 mm 4 m/s 750 mmHg 50%
    16:00 +34°C° 0 mm 4 m/s 750 mmHg 51%
    17:00 +31°C° 0 mm 3 m/s 750 mmHg 58%
    18:00 +29°C° 0 mm 3 m/s 750 mmHg 65%
    19:00 +27°C° 0 mm 2 m/s 750 mmHg 72%
    20:00 +27°C° 0 mm 2 m/s 750 mmHg 72%
    21:00 +26°C° 0 mm 3 m/s 749 mmHg 73%
    22:00 +25°C° 0 mm 3 m/s 749 mmHg 74%
    23:00 +24°C° 0,9 mm 3 m/s 749 mmHg 75%

    22 Julho, Domingo

    Tempo Temperatura Precipitação Vento Pressão Humidade
    00:00 +23°C° 0,9 mm 4 m/s 749 mmHg 77%
    01:00 +23°C° 0,9 mm 4 m/s 749 mmHg 78%
    02:00 +22°C° 0,3 mm 3 m/s 749 mmHg 80%
    03:00 +22°C° 0,3 mm 3 m/s 749 mmHg 81%
    04:00 +21°C° 0,3 mm 2 m/s 749 mmHg 82%
    05:00 +23°C° 0 mm 2 m/s 749 mmHg 80%
    06:00 +24°C° 0 mm 2 m/s 749 mmHg 77%
    07:00 +25°C° 0 mm 2 m/s 749 mmHg 75%
    08:00 +27°C° 0,3 mm 1 m/s 749 mmHg 69%
    09:00 +28°C° 0,3 mm 1 m/s 749 mmHg 63%
    10:00 +29°C° 0,3 mm 1 m/s 749 mmHg 57%
    11:00 +30°C° 0,6 mm 2 m/s 749 mmHg 59%
    12:00 +30°C° 0,6 mm 2 m/s 749 mmHg 60%
    13:00 +30°C° 0,6 mm 3 m/s 749 mmHg 62%
    14:00 +29°C° 0,7 mm 3 m/s 749 mmHg 64%
    15:00 +29°C° 0,7 mm 3 m/s 749 mmHg 66%
    16:00 +28°C° 0,7 mm 4 m/s 749 mmHg 68%
    17:00 +27°C° 0,3 mm 4 m/s 749 mmHg 71%
    18:00 +26°C° 0,3 mm 4 m/s 749 mmHg 74%
    19:00 +25°C° 0,3 mm 4 m/s 749 mmHg 77%
    20:00 +23°C° 0,3 mm 5 m/s 749 mmHg 78%
    21:00 +22°C° 0,3 mm 5 m/s 750 mmHg 79%
    22:00 +21°C° 0,3 mm 5 m/s 750 mmHg 81%
    23:00 +21°C° 0,2 mm 5 m/s 750 mmHg 80%
    Mostrar mais